Theta_e
335 333 331 331 332 332 332 333 332 332 333 335 337 338 339 339 340 340 340 339 338 337 337 335 334 333 332 332 332 332 332 332 331 329 327 327 326 326 326 326 327 329 329 328 328 328 328 328 328 329 328 328 329 329 328 329 329 329 329 330 331 330 329 327 327 327 327 327 327 327 327 325 325 326 326 328 328 328 328 328 329 329 330 331 331
333 332 332 332 332 332 332 332 333 332 332 334 337 338 338 339 340 340 340 339 338 338 337 335 332 330 329 329 330 331 331 332 330 328 326 325 325 325 324 324 325 326 326 325 325 325 325 325 326 327 327 327 328 328 328 328 328 329 328 329 330 330 329 328 327 327 329 330 330 330 329 327 325 325 325 326 327 328 328 328 328 328 328 328 328
332 332 333 333 332 333 333 333 332 332 332 333 336 337 338 338 338 339 338 338 338 338 336 334 332 329 328 328 329 330 330 330 328 326 325 324 324 324 324 323 323 324 324 323 322 321 321 322 324 325 325 326 328 328 327 327 327 328 327 328 329 328 328 328 328 328 329 329 329 329 330 329 329 328 327 325 325 326 327 327 328 328 327 326 326
334 333 332 333 334 333 333 333 332 332 331 331 334 337 338 338 338 339 338 338 338 337 336 334 331 329 328 328 328 328 329 328 326 324 323 322 321 322 322 322 322 323 323 322 320 320 320 320 322 323 323 325 326 327 327 327 327 327 327 327 327 328 328 328 328 328 329 329 329 329 328 328 329 330 330 328 326 326 326 327 328 328 329 327 326
335 334 333 333 334 334 333 333 332 331 331 331 333 334 335 334 334 335 335 337 338 337 335 333 331 330 328 328 328 327 326 325 324 323 321 320 319 320 321 321 322 322 322 321 320 320 319 319 320 321 322 323 325 326 327 326 326 327 326 326 326 327 328 329 328 328 328 327 328 329 329 328 329 329 330 330 329 328 327 327 327 328 329 329 329
335 335 335 334 335 334 333 332 331 331 330 330 331 331 331 329 330 330 330 333 337 336 335 333 331 329 328 328 327 327 326 325 324 322 321 320 320 320 321 321 322 321 321 321 320 320 319 319 319 320 322 322 322 324 325 326 326 326 326 327 326 326 327 327 328 327 327 327 327 328 328 328 329 329 329 330 330 329 329 328 328 328 328 329 329
335 335 335 335 335 334 332 331 330 330 329 329 330 330 331 331 332 331 330 333 334 333 333 332 330 328 327 326 326 326 325 324 323 321 321 320 320 320 320 320 321 320 321 320 319 319 318 318 318 320 321 321 321 322 324 324 325 325 326 326 326 326 327 327 327 327 327 327 327 327 326 326 327 327 328 329 330 329 329 328 326 326 327 328 329
334 334 333 335 335 332 330 330 329 329 329 329 329 330 330 331 333 332 330 333 332 330 330 331 329 327 326 326 326 325 324 322 321 320 320 320 319 319 319 319 319 319 319 318 318 318 317 316 316 317 320 320 320 321 322 322 323 324 325 325 326 326 327 327 326 326 326 327 327 327 326 325 324 324 324 327 329 329 328 327 324 323 324 326 327
333 332 333 334 333 329 327 328 329 329 330 329 329 330 330 331 333 332 331 332 332 330 330 330 328 326 326 326 325 324 322 322 320 320 320 319 319 319 319 318 318 318 318 318 317 316 315 314 313 315 317 318 319 319 319 319 320 323 324 324 323 323 323 325 325 325 325 326 326 327 326 325 325 324 323 325 328 329 327 325 325 323 321 320 320
332 332 333 332 329 326 326 326 328 329 329 330 330 330 330 331 332 330 331 331 331 330 329 328 326 325 324 324 323 322 321 320 320 320 319 319 318 318 318 318 317 317 317 317 316 315 314 312 310 311 314 315 316 317 318 318 319 321 323 321 319 319 319 321 323 325 325 325 325 325 326 325 326 325 324 324 324 325 323 322 324 323 317 315 314
330 330 330 329 326 326 327 327 327 328 329 329 329 329 330 331 330 329 329 330 330 329 328 326 325 324 323 322 321 321 320 319 319 320 319 319 319 318 318 317 316 316 317 316 315 314 313 310 308 309 311 312 313 315 316 317 318 320 320 318 317 317 317 317 320 323 323 321 321 320 320 321 322 322 323 325 324 323 322 320 321 318 315 313 313
329 328 328 326 326 326 327 327 328 328 329 328 329 330 330 330 328 327 328 329 329 328 325 325 324 323 322 322 321 320 319 318 318 319 319 319 319 318 317 316 315 315 316 315 314 314 312 310 309 309 310 310 311 312 313 315 317 318 318 317 316 316 316 316 317 318 317 316 315 315 316 316 317 316 318 322 324 322 321 320 318 315 313 313 313
328 328 328 326 327 328 329 329 329 329 328 327 328 328 328 328 327 327 327 328 329 327 324 324 323 323 322 322 321 320 319 318 316 317 319 319 319 318 317 315 315 315 314 314 314 314 313 311 311 312 311 310 309 309 311 313 315 316 316 315 314 314 315 315 314 314 314 314 314 314 314 314 313 312 313 316 320 321 321 319 317 316 314 312 312
326 327 327 326 327 329 329 329 329 328 326 325 326 325 325 326 326 326 326 326 327 326 323 323 323 323 322 322 322 320 320 319 315 315 317 319 319 319 316 314 314 315 314 315 315 314 314 313 313 313 313 312 310 308 308 311 313 314 314 313 313 313 314 314 313 313 312 313 313 313 313 313 311 311 311 313 316 318 319 318 316 316 315 313 313
325 326 326 325 327 329 329 328 328 327 325 324 325 326 325 326 326 326 326 326 326 324 322 322 322 322 322 322 322 321 321 319 315 313 315 317 318 317 315 313 313 313 314 315 315 315 314 314 314 314 314 314 313 311 308 308 311 312 313 312 312 313 312 312 311 311 311 311 312 312 312 311 311 311 312 312 313 315 317 318 316 316 314 314 313
325 326 325 325 327 328 328 328 326 324 324 324 325 325 325 325 326 326 326 326 326 324 323 322 322 322 322 322 322 321 321 319 316 314 315 315 316 315 314 313 312 312 313 313 313 314 313 313 314 313 314 314 315 314 311 308 308 310 312 312 312 312 311 309 308 307 308 309 309 310 311 311 310 310 310 310 309 311 314 316 317 316 315 314 313
325 325 325 325 326 326 326 326 324 323 325 325 324 325 325 325 325 326 326 326 326 325 324 323 323 322 322 322 322 321 321 320 317 315 315 315 315 314 313 314 313 312 313 313 312 313 313 313 313 312 313 314 315 316 314 311 310 309 309 311 311 312 311 310 308 306 306 306 307 308 311 311 310 309 309 309 308 308 310 312 314 315 316 314 313
325 324 325 326 327 325 323 323 323 323 325 325 325 324 325 325 324 325 326 326 327 326 325 325 324 324 323 322 322 321 321 321 318 315 314 314 315 314 313 313 313 313 313 313 312 312 313 314 314 313 313 313 314 315 315 314 313 312 311 310 311 312 312 311 310 308 307 307 308 308 311 311 309 309 309 308 308 308 308 309 310 312 315 315 314
325 324 324 325 325 323 321 322 322 322 325 326 325 324 324 324 323 324 326 326 327 327 326 326 326 326 325 323 322 321 321 321 318 316 315 314 314 314 314 313 313 313 313 313 313 312 313 315 316 316 314 313 313 314 315 314 314 314 313 313 312 311 312 312 311 310 309 309 309 309 311 310 309 308 308 308 309 308 308 309 308 309 312 313 314
323 324 324 324 324 322 321 322 322 323 325 327 327 325 323 324 323 324 325 325 325 325 326 326 326 326 325 323 322 321 321 320 319 317 316 316 314 314 315 315 315 313 313 314 313 312 313 314 316 316 316 315 314 313 314 314 314 314 314 315 314 312 313 313 312 311 311 311 310 310 310 309 308 309 308 308 309 308 307 307 308 308 309 310 312
322 322 323 323 323 322 321 321 321 323 324 325 326 325 323 323 323 323 324 325 324 324 324 324 325 325 324 322 321 321 321 321 319 317 317 317 315 315 316 316 315 315 315 315 314 313 314 314 315 316 316 316 316 315 314 313 314 314 314 315 314 314 314 314 312 312 312 311 311 311 310 309 308 309 309 308 308 308 307 306 306 307 307 309 310
321 321 321 321 322 321 321 320 320 321 322 322 325 324 322 322 323 323 323 323 323 323 324 323 323 323 322 322 321 321 321 320 319 317 318 318 317 316 316 317 317 316 316 316 316 316 315 315 315 315 316 316 316 317 316 315 315 315 315 315 314 314 314 314 314 314 313 311 310 310 310 309 308 308 308 308 308 308 308 307 307 306 306 306 307
320 321 321 322 323 321 321 321 320 321 321 321 322 322 323 323 322 322 322 322 323 323 323 323 322 322 321 321 320 320 320 319 318 318 319 319 318 317 316 317 317 317 317 317 317 317 317 317 316 316 316 317 316 317 317 317 317 317 316 316 315 314 314 314 314 315 315 313 311 311 310 310 309 308 307 307 308 308 308 308 306 305 304 305 306
320 320 321 322 323 322 322 322 321 321 320 321 321 321 322 322 322 323 322 322 323 322 323 322 322 323 321 321 320 320 319 319 318 318 319 319 319 318 317 317 317 318 318 318 318 319 318 318 317 317 317 318 318 317 317 317 317 317 317 317 316 316 316 315 315 315 314 314 313 313 312 311 311 310 308 307 307 307 308 308 306 304 304 305 307
320 320 320 321 322 321 322 321 321 321 320 320 321 321 322 322 322 323 322 322 322 322 322 322 322 323 322 322 321 320 319 319 319 319 319 319 319 318 318 318 318 319 320 320 319 319 318 318 317 316 317 318 318 318 318 317 318 318 317 317 317 317 317 316 316 316 315 314 314 314 314 312 311 311 311 309 308 307 307 307 306 304 304 306 308
320 320 320 320 320 320 319 318 319 320 320 321 321 321 322 322 322 322 322 322 322 322 322 322 322 322 322 322 321 320 320 319 319 321 320 320 319 319 318 318 318 319 319 319 319 318 318 318 316 315 316 318 318 318 318 318 318 318 317 317 317 317 317 316 317 317 316 315 314 314 314 314 313 312 312 311 310 308 307 307 307 305 304 306 308
318 318 318 318 317 317 316 315 314 315 317 319 320 320 321 321 322 322 322 322 322 322 322 322 322 322 323 322 322 321 320 318 320 321 320 319 319 319 318 319 319 319 319 318 318 318 318 317 316 316 317 318 318 318 318 318 318 318 318 317 317 317 316 316 317 318 318 316 315 314 314 314 314 313 313 313 312 309 308 307 307 306 304 304 306
315 315 315 315 314 313 312 311 310 311 313 315 317 319 320 320 321 322 322 322 322 321 321 322 322 322 322 322 322 321 320 320 320 320 319 319 319 319 319 319 319 319 319 319 318 318 318 318 317 317 317 318 318 319 318 318 318 319 319 319 318 318 318 317 318 318 318 318 317 316 315 315 315 314 313 313 313 311 309 308 307 306 305 303 304
312 311 311 311 310 310 310 309 308 308 309 310 312 314 317 319 320 321 322 322 321 321 321 322 322 322 322 321 320 320 320 320 320 319 319 319 319 320 320 319 319 319 318 317 317 318 318 318 318 318 318 318 318 318 318 318 319 320 320 320 320 319 319 319 319 319 318 318 317 317 317 317 317 317 315 314 313 312 311 309 308 307 305 304 304
309 308 308 308 308 308 308 307 307 306 306 306 307 310 314 318 319 321 321 321 321 321 321 321 321 321 321 321 320 320 319 320 319 319 319 319 319 319 319 318 318 318 317 317 317 318 318 318 318 318 318 318 319 319 320 319 320 320 320 320 320 320 320 320 319 319 319 318 317 317 318 318 318 318 316 315 314 314 312 310 309 308 307 305 304
307 307 307 307 307 308 308 307 307 306 305 305 305 307 312 316 318 320 321 321 321 321 321 321 321 321 321 320 320 320 319 320 319 319 319 319 319 319 319 318 318 317 317 318 319 319 319 319 319 319 319 319 319 318 318 317 318 318 318 319 319 319 320 320 320 320 320 318 318 318 318 318 318 317 316 315 315 315 314 312 309 309 308 306 305
306 306 306 306 307 308 308 307 306 305 305 304 304 305 307 311 315 318 319 319 320 320 320 320 320 321 320 319 320 319 319 319 319 318 318 319 319 319 318 318 318 318 319 319 320 320 320 319 319 318 317 316 315 313 312 312 312 313 315 316 318 319 319 319 319 319 319 319 319 318 318 318 318 317 316 315 315 315 314 313 311 309 307 305 304
305 305 306 306 307 308 308 307 306 305 304 304 305 305 304 305 308 311 311 311 312 312 313 315 317 318 318 318 319 318 317 316 316 317 317 317 318 318 318 318 318 318 318 317 317 316 316 314 313 312 311 310 310 309 309 309 309 309 310 311 313 315 318 319 319 319 319 319 318 318 318 317 317 316 315 314 314 314 313 312 310 307 305 303 303
305 305 306 306 307 307 308 308 307 306 305 304 304 304 304 304 305 305 306 306 306 306 307 308 310 312 313 314 314 314 314 314 314 314 315 315 315 315 314 314 313 313 313 312 311 310 310 309 309 309 308 308 308 308 307 308 308 307 308 308 309 311 314 316 318 318 318 318 318 318 318 316 316 315 315 314 312 312 312 310 307 304 302 303 303
304 304 306 307 307 306 306 305 305 305 305 305 305 304 305 305 305 305 305 306 306 306 306 306 306 307 308 309 309 310 310 311 311 311 310 310 310 309 310 310 310 310 309 309 308 308 308 308 308 307 306 306 306 307 307 307 307 307 307 307 308 309 310 313 316 317 318 318 318 317 317 315 314 314 314 313 311 310 310 307 303 302 302 302 303
300 302 303 304 304 303 302 302 303 303 304 305 305 305 305 305 305 305 305 305 306 306 306 306 306 307 307 307 308 308 308 308 308 308 308 308 308 308 308 308 309 309 308 308 308 308 307 307 307 306 306 306 307 307 308 307 307 307 306 307 308 309 310 312 315 316 317 316 316 315 314 313 313 312 312 311 309 308 307 304 302 302 302 302 302
299 300 300 300 299 299 299 299 300 301 301 303 304 304 305 304 304 305 305 305 306 306 306 306 306 306 307 307 307 307 307 307 307 307 308 307 307 308 308 308 309 308 309 308 308 307 307 307 307 307 307 307 307 308 308 308 307 306 306 306 307 309 310 313 314 314 314 313 312 312 311 311 310 309 309 308 306 305 304 303 302 302 302 302 302
299 299 299 298 298 298 298 299 299 299 299 300 301 302 304 304 304 304 304 305 306 306 305 305 305 306 306 306 306 305 306 307 307 307 307 307 307 308 308 308 308 308 308 308 308 308 308 308 308 308 308 307 308 308 308 308 308 307 306 305 306 308 311 312 312 311 311 310 310 310 309 309 308 307 306 305 303 303 303 303 302 302 302 302 301
298 298 298 298 298 298 298 298 299 299 299 299 299 300 302 303 303 303 304 305 306 305 305 305 305 305 305 306 306 305 306 306 307 307 306 306 306 306 306 307 307 307 307 307 308 307 307 307 307 307 307 308 308 308 308 308 307 307 306 305 305 307 310 311 310 309 308 308 308 307 307 306 306 305 305 303 302 302 302 302 302 302 301 299 298
298 298 298 298 298 298 298 298 298 298 298 299 299 299 300 301 301 302 302 303 303 303 303 303 304 304 305 305 305 305 306 306 306 306 305 305 305 305 306 306 306 306 306 306 305 305 305 305 305 305 306 307 308 308 308 307 307 307 307 306 305 307 309 310 308 307 307 306 305 305 304 303 303 303 303 302 302 301 301 301 300 299 298 296 295
297 297 297 298 298 298 298 298 298 298 298 298 298 299 299 299 299 300 300 300 300 300 300 300 301 302 304 305 305 305 305 306 305 305 305 305 305 305 305 305 305 305 305 304 304 304 304 304 305 306 307 308 308 308 307 307 307 307 307 306 306 306 308 308 307 306 304 303 302 301 301 301 301 301 301 301 301 300 300 299 298 296 295 294 294
297 297 297 297 297 297 298 298 298 298 298 298 298 299 299 299 299 300 300 299 299 299 299 300 300 300 302 303 304 305 305 305 305 305 305 305 305 304 304 304 304 304 304 304 304 304 305 305 305 306 306 306 307 306 306 306 306 307 307 307 306 306 306 307 307 305 303 301 300 299 299 299 299 299 299 299 299 298 298 297 296 295 294 294 293
297 297 296 296 297 297 297 297 297 297 298 298 298 299 299 299 299 299 298 298 299 299 299 300 300 300 300 301 302 304 304 305 305 304 305 305 304 304 304 304 304 304 304 304 304 304 305 305 305 305 305 305 305 305 305 305 306 306 307 307 306 306 306 306 306 304 302 301 300 298 298 297 298 298 298 297 297 296 295 294 294 293 293 292 292
296 296 296 295 296 297 296 297 297 297 297 297 297 298 298 299 299 299 298 298 298 298 298 299 300 300 300 300 301 302 303 304 304 304 304 304 304 304 304 304 304 304 304 304 304 304 305 305 305 305 304 304 304 304 304 304 305 305 306 306 306 306 305 305 304 303 301 300 298 298 297 296 296 296 295 295 294 294 293 292 292 292 291 291 291
295 295 295 295 295 295 295 296 296 296 296 296 297 297 297 298 298 298 298 298 298 298 298 298 299 300 301 301 301 301 302 303 304 304 304 304 304 304 304 304 304 303 304 304 304 304 304 305 305 305 304 303 303 303 303 303 303 304 305 305 305 305 304 303 302 301 300 298 297 297 296 295 295 294 294 293 293 292 292 291 291 290 290 290 290
294 294 294 294 294 294 295 295 295 295 295 295 296 296 296 297 297 297 298 298 298 298 298 297 298 299 300 301 301 301 302 303 303 303 303 303 304 304 304 304 304 303 304 305 304 304 304 305 305 304 303 303 303 302 302 302 302 303 303 303 302 302 301 300 300 299 298 297 296 295 294 294 293 293 292 292 292 291 291 290 290 290 290 290 290
292 292 292 292 293 293 293 294 294 294 294 294 294 295 295 296 296 297 297 297 297 298 297 297 298 298 299 299 300 301 302 302 302 303 303 303 303 303 303 303 303 303 304 304 304 304 304 304 304 304 303 302 302 302 302 302 301 301 301 300 300 299 298 298 298 297 296 295 295 294 293 293 292 292 292 291 291 290 290 290 290 290 289 289 289
291 291 291 291 291 292 292 292 293 293 293 293 293 293 294 294 294 295 296 296 297 297 298 298 297 298 298 298 299 300 301 302 302 303 303 303 303 303 303 303 303 303 303 303 303 303 303 303 304 304 302 302 302 302 302 302 301 301 300 299 298 298 297 297 297 296 295 294 293 293 292 292 292 291 291 291 290 290 289 289 290 290 290 289 289
290 290 290 290 290 291 291 291 291 292 292 292 292 292 292 292 293 293 294 295 296 296 297 297 298 298 298 298 298 299 301 302 302 302 302 303 302 302 303 303 303 303 303 303 303 303 303 303 303 303 303 302 301 302 302 302 301 301 300 300 299 298 297 297 297 296 295 293 292 292 292 292 291 291 291 291 290 290 290 290 289 289 289 290 290
289 289 290 289 290 290 290 290 290 290 290 290 291 291 291 291 291 292 292 293 294 295 296 297 298 298 299 299 298 299 300 301 302 302 302 301 301 302 302 302 302 302 302 302 302 302 302 302 302 302 302 302 302 302 302 302 301 300 299 299 299 298 297 297 296 295 294 293 292 292 292 291 291 291 291 290 290 290 290 290 289 289 289 289 289
289 289 289 289 289 289 289 289 289 289 289 289 289 290 290 290 290 291 292 292 293 294 296 297 299 299 299 299 299 299 299 301 301 301 301 301 301 301 301 301 302 302 302 302 302 302 302 302 302 302 302 302 302 302 302 301 300 299 298 298 297 297 296 296 295 293 293 292 292 292 291 291 291 291 290 290 290 289 289 289 289 289 289 289 289
Wind_Speed
8 7 9 10 10 10 9 10 11 13 15 15 16 17 17 17 17 16 15 16 14 13 13 12 11 11 10 10 9 10 10 9 9 10 9 8 7 7 7 7 7 7 7 7 6 5 4 3 2 1 1 2 1 0 1 1 1 1 2 3 4 3 5 5 6 7 6 6 5 4 5 5 5 4 4 3 3 3 3 3 3 4 5 5 6
6 8 10 11 12 11 11 11 12 14 17 17 16 15 16 17 17 17 16 15 14 14 13 12 12 13 12 12 12 13 11 9 10 10 9 8 7 7 7 8 7 7 7 7 7 6 6 5 4 3 2 1 1 1 1 2 3 2 1 2 4 4 5 5 5 8 7 6 5 3 4 6 6 6 5 5 4 4 3 1 1 2 2 3 2
8 9 11 13 14 13 13 13 13 15 16 16 14 12 13 14 14 16 17 16 15 14 13 12 12 12 11 13 14 14 12 10 11 10 8 8 7 7 6 6 6 6 6 7 7 6 6 5 5 5 4 3 3 2 2 1 2 2 2 2 4 4 4 3 3 7 7 5 4 4 3 3 5 6 7 8 8 6 5 3 2 2 1 1 1
10 10 10 13 16 16 15 14 14 14 12 12 13 9 9 11 14 18 18 17 16 15 14 13 12 12 11 13 14 13 13 12 11 9 8 6 6 7 6 5 5 5 6 6 5 5 5 5 5 5 5 5 4 3 3 3 2 2 1 2 3 4 4 2 2 5 6 4 3 3 2 3 3 3 4 6 7 7 5 4 4 3 3 3 3
12 12 11 13 15 16 16 14 12 10 7 8 8 5 5 5 7 11 13 15 16 15 15 15 14 14 14 14 13 12 12 11 10 9 7 6 6 7 7 6 7 7 7 6 4 4 4 4 4 4 4 4 4 4 4 5 4 3 3 3 2 3 5 4 3 2 4 5 4 2 1 3 1 1 2 3 3 2 2 2 3 3 3 2 2
12 13 13 12 14 16 14 11 10 9 9 9 7 6 7 7 5 5 5 9 13 15 16 17 17 16 17 16 13 12 11 10 9 9 8 8 9 9 8 8 8 7 7 5 4 3 3 3 3 3 3 4 5 5 6 5 5 4 4 4 3 2 4 5 4 2 1 3 4 3 2 2 1 1 2 2 2 1 2 2 2 4 4 5 5
11 13 13 13 14 14 10 9 12 14 14 12 10 10 12 14 13 11 10 11 12 14 16 17 18 17 17 16 13 12 11 10 10 9 9 10 11 11 10 9 8 7 6 5 4 3 3 3 2 2 2 2 4 4 5 6 6 6 5 5 5 4 3 2 3 3 2 2 2 2 1 3 2 0 1 1 1 2 4 5 7 6 5 6 7
11 12 13 14 11 7 7 14 18 19 16 14 14 15 15 16 15 15 17 15 12 14 16 17 17 17 17 16 13 12 11 11 11 9 10 11 12 12 11 10 8 7 6 5 4 4 3 3 3 3 2 2 3 4 4 6 6 6 6 6 5 4 4 3 2 2 3 3 2 2 2 3 3 1 2 2 2 2 3 5 9 11 9 9 8
11 11 12 10 3 12 18 22 23 18 14 14 15 16 15 14 15 17 18 15 12 14 17 17 17 16 17 16 13 12 11 11 11 10 11 12 12 12 10 9 8 7 6 6 6 5 4 4 4 3 3 3 4 4 4 5 5 5 6 7 6 6 6 4 4 3 3 3 2 2 1 1 2 3 2 2 2 2 3 3 7 12 14 13 11
10 9 6 5 16 27 28 23 17 12 12 15 16 16 15 16 18 19 18 16 15 16 18 18 17 16 17 15 14 14 13 12 12 12 13 13 12 11 10 8 7 6 7 7 6 5 5 5 4 3 3 4 4 4 5 5 5 5 6 7 8 9 8 6 5 5 4 3 2 2 2 2 3 4 3 5 4 4 4 4 6 10 11 12 14
6 5 7 17 25 29 26 20 18 18 17 18 18 17 17 20 21 19 18 17 17 18 19 19 19 18 16 15 14 15 15 14 14 14 14 13 12 11 9 7 7 7 8 8 7 6 6 6 5 5 5 4 4 4 4 4 5 5 6 7 7 8 8 7 7 7 6 6 6 6 6 5 4 4 3 4 5 5 6 6 8 11 12 12 14
5 6 10 17 19 18 17 18 21 22 22 24 26 24 22 22 22 21 20 19 18 20 20 20 20 19 16 14 13 14 13 13 15 16 15 14 12 10 9 8 9 9 9 8 7 7 7 7 7 8 7 6 6 5 4 4 4 5 5 5 6 7 7 7 8 9 9 9 10 9 9 8 6 5 4 3 4 6 8 8 9 11 12 12 11
6 7 10 13 12 12 14 16 18 21 22 19 17 20 24 24 25 24 21 20 21 22 22 22 22 20 17 15 13 13 11 10 12 14 14 13 11 10 10 10 10 11 10 9 8 7 7 8 8 9 9 8 8 7 5 5 4 4 4 4 5 6 7 7 8 9 8 9 9 9 9 8 8 7 5 4 4 7 9 9 9 9 10 10 9
7 8 10 10 9 10 11 12 11 11 12 11 9 11 19 21 23 23 21 22 24 25 24 24 23 20 18 16 14 13 11 9 10 12 13 13 11 10 9 10 10 10 9 9 7 7 7 8 8 9 9 10 10 9 7 6 5 4 4 5 6 7 6 7 7 7 8 8 8 9 9 9 10 9 7 6 5 6 8 10 10 9 9 9 8
9 10 11 10 9 8 7 8 7 8 16 17 9 13 16 17 21 23 23 26 27 26 25 24 23 21 19 18 16 14 12 10 11 12 12 12 11 10 9 9 9 9 8 8 7 7 6 7 7 7 8 9 10 10 9 8 6 5 6 6 6 6 5 5 6 6 7 7 8 9 10 10 11 10 9 7 5 5 6 10 11 9 7 7 7
9 10 11 11 11 10 7 2 5 16 21 16 11 14 14 16 21 24 25 27 27 25 24 24 23 22 21 20 18 16 14 12 12 13 12 11 11 11 10 9 9 8 8 7 7 6 6 6 6 6 7 7 8 9 10 9 8 7 6 6 6 6 5 5 6 6 6 7 7 8 10 10 10 10 10 10 9 8 8 9 9 8 8 6 5
8 8 9 10 10 11 11 4 7 18 23 16 14 14 16 21 23 25 25 25 24 24 24 23 22 22 22 21 20 19 16 14 13 14 14 12 11 12 11 10 9 8 7 7 6 6 5 6 6 6 6 6 7 7 9 9 10 9 8 7 6 6 6 6 7 6 6 7 7 8 9 9 9 10 10 11 11 10 9 8 6 6 7 6 5
8 7 5 6 7 10 14 11 6 17 21 15 15 17 19 22 24 24 24 25 26 26 24 23 22 21 21 22 22 20 17 15 13 14 14 13 13 12 11 10 9 8 7 6 6 5 5 5 5 5 5 5 5 6 6 8 9 9 8 7 6 6 6 6 7 7 7 7 7 8 8 8 9 9 10 10 11 11 10 7 6 7 6 5 6
5 6 3 1 5 9 18 18 8 12 14 11 12 17 19 21 21 20 21 22 24 24 24 23 21 20 20 20 21 20 18 16 15 14 15 14 13 13 11 10 8 8 7 6 5 5 4 3 3 3 4 5 5 5 5 5 6 7 7 6 6 5 5 5 5 5 6 6 6 7 7 7 8 8 8 8 9 11 11 10 8 7 7 6 8
2 5 4 3 5 6 17 21 16 14 14 12 12 16 18 19 18 17 16 15 16 19 21 22 21 20 19 19 20 19 18 17 15 15 15 14 13 13 12 11 10 9 7 6 6 5 4 3 2 2 2 2 3 3 3 3 4 4 4 4 4 4 3 3 3 3 3 4 4 4 5 5 6 6 7 7 8 9 11 11 12 11 10 9 9
3 4 4 4 3 7 12 15 18 18 18 21 20 18 16 17 18 16 13 10 10 13 16 18 20 19 18 19 19 19 18 17 16 16 16 15 14 14 12 11 11 10 9 7 6 5 5 3 2 1 1 1 1 2 2 3 3 3 3 2 3 3 1 1 2 2 2 2 2 3 4 4 4 5 6 7 7 8 9 10 12 12 12 11 9
5 5 4 3 5 9 10 11 14 14 14 18 21 18 15 15 14 13 11 8 7 10 12 14 16 17 18 19 19 20 19 17 16 16 16 16 15 14 13 12 11 10 9 8 6 4 3 2 1 1 2 3 3 4 4 4 4 4 4 3 4 4 4 4 3 1 1 0 1 2 2 2 2 3 4 5 6 6 6 7 9 9 11 11 11
5 4 4 6 8 9 10 10 10 9 8 8 10 12 13 12 9 8 9 7 7 9 11 12 14 15 17 17 17 18 18 17 17 17 17 16 15 14 13 12 11 9 8 7 6 3 2 1 1 2 4 5 6 6 5 5 6 6 6 6 6 6 6 6 6 4 4 4 3 3 3 2 2 2 2 4 4 4 4 6 7 8 10 12 11
5 5 5 6 8 10 10 10 9 7 6 5 5 5 7 7 5 4 5 6 7 8 10 11 12 13 13 14 14 15 15 15 16 16 17 17 16 14 13 12 11 8 7 6 6 5 4 3 2 4 5 6 8 7 7 8 10 10 9 8 8 9 9 9 9 8 7 7 7 6 6 5 4 4 3 4 4 4 4 5 6 8 9 11 11
5 5 5 5 7 8 8 9 9 8 7 5 5 5 4 4 3 4 5 5 6 7 9 10 11 11 12 12 12 12 12 12 13 15 17 17 16 15 13 12 11 9 7 6 6 6 7 6 6 6 7 9 8 8 7 9 12 15 14 12 11 11 11 11 11 11 10 10 10 9 8 8 8 7 7 6 6 6 6 6 7 7 8 9 8
5 4 5 6 6 8 8 8 7 6 6 5 5 5 4 4 4 3 4 5 6 6 7 9 10 11 11 11 11 12 11 11 12 15 17 18 17 16 14 13 12 9 7 7 7 8 8 8 9 9 9 9 9 10 10 10 12 14 14 14 14 14 13 13 12 13 13 13 14 13 11 11 11 11 11 10 10 9 9 8 8 7 8 8 7
5 5 6 7 8 9 10 9 7 6 5 5 5 4 4 4 4 4 3 3 6 7 7 8 9 10 10 11 13 13 13 14 15 16 18 18 17 16 14 12 10 8 7 6 7 7 7 8 9 10 10 10 10 11 12 11 11 12 12 13 13 14 15 16 16 15 13 13 14 15 14 13 13 13 14 14 13 13 12 10 10 9 9 8 7
7 8 9 9 9 9 11 11 10 9 8 7 6 4 4 4 6 7 5 3 5 8 8 8 9 9 10 11 12 12 13 15 16 17 17 16 15 14 12 9 8 8 7 5 5 6 7 8 9 9 9 8 8 8 9 10 10 10 10 9 10 11 13 14 15 14 12 12 13 14 14 14 14 15 16 16 15 15 15 14 13 12 11 10 7
9 9 9 9 9 9 10 12 12 12 11 10 7 5 4 4 6 8 6 3 4 8 9 8 8 9 10 10 10 11 12 14 15 16 15 14 13 12 10 9 9 8 7 6 7 7 8 8 8 8 8 7 6 6 7 7 7 7 7 8 8 9 10 11 12 12 11 11 11 11 13 14 15 15 16 16 16 16 17 17 16 14 13 12 9
9 9 9 9 9 9 10 12 12 13 13 12 11 9 6 5 6 6 5 3 4 7 9 8 8 9 11 11 11 12 13 13 14 14 14 13 13 12 11 11 10 9 8 7 8 8 8 7 6 6 5 5 4 4 4 5 5 6 6 6 6 7 7 8 9 10 10 10 10 12 14 14 14 15 14 13 15 17 18 19 19 17 15 14 12
9 9 9 9 9 10 12 12 13 14 15 15 14 13 10 8 6 5 5 5 5 6 8 8 8 8 9 10 11 11 12 12 13 13 13 13 13 12 11 11 10 8 7 7 7 6 6 5 4 4 3 3 2 1 1 1 2 3 4 5 5 5 5 5 6 7 8 8 8 11 12 11 12 12 10 9 12 15 16 18 20 19 17 16 14
10 10 10 10 10 11 12 12 13 15 17 17 16 15 14 11 8 7 6 6 5 6 6 7 7 8 8 9 10 10 11 11 12 13 12 12 12 11 11 10 9 8 7 7 7 6 6 6 6 6 6 6 6 6 5 4 4 3 3 4 4 5 5 5 5 5 6 5 5 7 9 10 10 11 9 7 9 11 14 17 18 18 17 16 13
10 11 11 11 11 12 12 12 13 15 17 18 17 17 16 13 10 9 9 8 8 7 7 7 7 7 7 8 9 10 10 10 10 10 10 10 10 10 10 10 9 9 9 10 11 10 10 10 10 11 10 9 9 8 7 6 5 5 5 5 5 5 5 5 6 6 6 5 4 6 9 11 11 11 9 7 7 8 11 14 16 17 18 16 13
10 11 11 11 11 12 13 13 12 14 16 18 19 19 18 15 13 11 11 11 11 10 10 9 8 8 7 7 8 8 9 9 9 9 9 11 12 12 12 12 12 13 13 14 14 13 13 12 11 10 10 9 8 7 6 6 5 5 5 5 5 5 5 5 6 7 6 6 5 6 9 10 11 10 9 7 7 7 8 11 14 17 17 14 11
9 9 10 10 11 12 13 14 14 15 16 17 18 18 18 17 15 13 11 11 11 11 11 11 10 9 9 9 9 10 10 10 10 11 12 13 14 14 13 13 13 13 13 13 12 12 11 10 9 8 8 8 7 6 6 6 6 6 5 5 6 6 6 6 5 6 6 7 6 7 8 8 9 8 7 6 6 5 6 11 15 16 14 11 8
9 9 9 10 12 13 14 15 15 15 15 14 15 15 15 16 15 14 14 14 15 14 14 13 12 11 10 9 10 11 11 11 11 12 13 12 12 12 12 13 12 12 12 11 11 10 9 8 8 8 8 8 7 7 6 6 7 7 6 5 5 6 6 6 5 5 5 5 5 5 5 6 6 6 6 5 4 3 7 12 15 13 11 8 6
9 10 10 12 14 14 16 16 16 16 14 12 11 10 10 11 11 11 12 13 14 15 15 14 13 12 11 10 9 8 8 9 9 10 11 11 11 11 12 12 12 12 11 10 9 8 7 7 6 6 7 7 7 6 6 6 7 8 7 6 6 6 6 6 5 5 4 4 3 3 4 5 6 6 5 4 1 4 9 11 11 10 8 6 4
9 10 11 13 14 14 15 17 17 17 17 14 11 9 7 7 9 9 8 7 6 7 7 7 8 8 7 6 5 4 4 5 6 8 9 10 11 11 12 12 11 11 10 9 8 7 6 5 4 4 4 4 4 4 4 6 7 7 7 7 6 6 5 5 4 4 4 4 4 4 5 6 6 5 5 3 3 5 7 8 7 6 5 4 4
10 11 11 13 14 14 15 17 17 18 17 15 13 11 8 7 8 8 6 6 5 2 1 1 2 3 5 6 8 8 10 11 11 11 11 10 10 10 10 10 9 8 8 8 7 6 5 4 3 2 2 2 2 2 3 5 5 5 6 7 6 5 4 3 3 3 3 4 5 4 4 4 4 3 3 4 5 6 6 5 4 3 2 3 3
12 13 14 15 15 16 16 16 16 16 15 15 14 12 11 9 9 8 7 8 8 8 7 8 8 7 6 7 9 11 11 12 12 12 11 10 10 9 9 8 7 6 6 5 4 4 3 2 1 0 1 1 1 1 2 3 4 4 4 5 5 4 2 1 1 2 4 5 5 5 5 4 4 5 5 5 5 5 4 3 2 1 2 2 2
11 13 15 15 15 16 15 14 14 14 14 14 14 13 12 12 11 10 10 11 11 11 12 13 13 12 11 10 11 13 12 11 11 11 11 11 10 9 8 7 7 6 5 5 4 3 3 2 2 1 1 1 1 2 3 3 3 3 2 2 3 2 1 0 2 4 5 6 7 8 7 6 5 5 4 3 2 1 1 1 1 1 1 2 3
12 14 15 16 15 15 15 14 14 14 13 13 13 12 12 13 12 12 12 12 13 13 14 14 13 13 13 14 14 15 15 14 12 13 13 13 12 11 10 9 9 8 7 6 5 4 4 3 3 3 3 2 2 3 3 4 4 3 2 1 0 1 1 2 4 6 7 8 9 9 9 7 4 3 1 0 1 2 2 3 2 2 3 3 3
12 13 14 14 13 12 13 14 14 13 13 13 13 12 12 12 12 12 14 14 14 15 15 15 14 14 14 14 16 18 19 17 15 15 16 15 14 14 14 13 13 12 10 9 8 7 6 6 5 5 5 5 4 4 5 5 5 5 4 4 3 3 3 4 6 8 9 9 9 9 7 5 3 1 0 0 1 2 2 2 3 3 4 5 5
10 11 12 12 11 11 12 13 13 14 13 13 13 13 12 12 13 14 16 16 16 16 17 16 16 16 16 16 16 18 21 21 19 18 19 18 17 17 17 16 15 14 12 11 10 9 9 8 8 7 7 6 6 7 7 7 7 6 6 7 6 5 6 7 8 9 10 10 9 8 6 4 3 2 1 1 2 2 3 3 3 4 5 6 5
9 9 10 10 10 11 11 12 12 13 13 14 14 14 15 14 14 15 16 17 18 18 18 17 17 16 16 16 17 18 21 23 22 22 21 21 21 20 19 17 16 15 13 12 11 11 11 9 8 8 8 8 8 8 9 9 8 7 7 8 7 7 7 8 9 10 11 10 8 7 6 5 4 3 3 3 3 4 4 4 5 6 6 6 5
10 10 11 12 11 11 11 12 12 12 12 13 14 15 15 17 17 17 17 18 19 19 20 19 18 17 16 16 16 17 19 23 25 25 24 24 23 21 20 19 18 17 15 12 11 12 11 9 9 9 10 10 10 10 10 9 8 8 8 8 8 8 9 9 10 11 11 9 8 7 7 6 5 4 3 3 4 4 5 6 8 8 7 6 6
10 11 12 12 12 12 12 13 13 12 12 13 14 15 15 17 18 18 18 19 19 20 21 21 20 18 17 16 15 16 18 21 24 25 24 23 21 20 20 19 18 18 16 14 13 12 11 10 10 11 12 12 11 11 11 10 9 9 9 10 10 10 10 11 11 12 11 10 10 9 7 6 4 3 3 4 5 5 6 6 7 7 6 6 7
10 11 11 12 12 12 13 14 14 13 13 13 14 15 16 18 18 18 19 20 20 20 21 21 22 20 18 17 16 15 16 19 22 22 22 21 20 19 19 19 18 16 15 13 13 12 11 11 11 11 13 13 12 13 13 13 12 12 12 13 13 13 13 13 13 13 13 12 11 10 8 6 5 4 4 4 5 5 6 6 6 6 5 6 8
11 11 11 12 13 14 14 15 15 14 13 14 14 15 16 17 18 19 19 19 20 21 22 22 22 21 20 19 18 16 16 17 18 18 17 17 16 16 16 16 15 14 12 12 11 12 13 13 12 11 12 12 13 15 16 14 13 13 13 14 15 15 15 14 13 13 13 14 12 9 8 6 5 4 4 4 4 5 5 6 6 6 5 6 7
13 13 13 14 15 15 15 16 16 15 15 15 15 15 15 16 17 18 18 17 18 20 21 23 22 21 21 21 20 18 16 15 15 14 13 13 14 14 14 14 13 12 13 13 13 13 14 14 14 15 14 13 14 16 15 13 13 14 15 14 14 14 14 14 13 13 13 13 12 9 7 5 4 4 4 4 4 5 5 5 6 6 5 6 7
15 15 16 17 17 16 16 17 16 16 16 17 16 16 16 16 17 17 16 15 16 16 18 20 20 20 20 21 20 19 16 15 15 14 13 14 14 14 15 15 14 14 15 16 17 17 17 17 17 18 17 17 17 16 15 13 13 16 17 16 14 14 14 13 14 14 13 12 10 8 7 5 4 4 4 4 4 5 5 6 6 6 6 6 7
Wind_Direction
211 216 211 209 212 210 198 194 189 182 186 183 176 177 171 169 176 179 183 187 181 174 175 172 164 159 158 155 148 145 142 136 133 130 125 120 112 102 94 89 87 96 103 102 99 90 89 87 62 36 335 308 300 227 218 176 115 146 187 179 159 172 242 235 198 195 198 200 201 210 219 220 218 208 205 220 243 249 247 254 254 252 250 237 236
195 217 220 214 214 208 195 194 189 185 191 187 182 181 170 164 171 176 183 187 183 181 182 178 172 168 161 158 152 146 145 142 138 134 128 122 113 108 98 88 88 98 103 101 94 81 73 65 55 52 42 41 66 82 180 150 124 124 170 180 154 174 238 255 205 200 207 209 206 213 225 231 237 233 223 216 221 229 221 211 205 182 169 171 190
182 205 217 216 213 207 199 195 191 190 192 188 185 180 166 161 167 178 185 185 184 183 181 179 176 171 161 156 152 147 148 147 140 132 123 120 121 124 114 95 94 106 114 108 91 77 66 57 54 53 49 53 64 64 72 112 131 138 158 183 156 164 224 262 203 208 220 216 212 224 229 233 233 229 225 223 222 226 226 231 231 201 197 244 271
195 200 207 214 212 207 203 196 189 188 185 181 185 179 165 172 180 185 186 186 186 179 176 180 174 166 159 156 153 149 148 146 138 130 124 122 126 133 133 121 112 118 124 112 90 78 68 58 51 44 40 48 58 63 70 75 83 106 113 144 156 168 192 195 174 207 221 210 217 236 227 238 235 212 217 226 228 231 234 244 249 252 284 297 305
207 209 208 211 211 208 206 195 180 173 162 158 167 164 153 166 175 175 179 184 187 179 175 179 171 162 159 155 153 148 146 146 139 132 129 122 120 127 129 124 119 123 128 117 97 82 66 54 44 33 30 47 60 62 69 73 73 79 79 86 130 182 181 172 165 201 220 210 221 252 241 251 256 141 216 220 218 235 240 239 254 280 316 334 6
212 215 214 212 212 211 204 182 152 136 125 121 128 148 172 186 171 135 157 185 188 185 180 178 171 166 166 162 158 152 147 148 145 137 134 126 122 123 121 120 120 123 129 120 102 83 56 37 24 21 28 54 67 62 62 67 69 69 72 76 82 147 163 165 165 156 208 205 220 249 290 313 357 120 233 203 144 89 52 65 55 34 33 45 56
216 218 218 217 214 209 189 143 121 112 113 124 144 166 182 193 187 173 187 198 190 185 180 175 173 175 177 173 168 162 153 153 153 144 137 131 126 123 119 119 121 120 123 117 103 88 53 29 13 20 40 62 68 59 58 63 63 61 65 74 77 89 110 127 153 175 204 192 211 236 307 356 17 26 271 261 173 110 71 67 63 53 60 73 70
216 217 219 223 213 186 133 114 114 114 122 142 161 174 182 188 185 180 187 192 190 183 179 181 183 185 182 174 168 166 159 156 155 146 140 137 130 127 124 122 123 121 120 117 111 100 66 37 18 18 29 49 55 51 56 61 58 59 68 77 81 85 85 75 102 170 204 192 211 244 288 339 15 42 246 250 230 141 101 83 75 68 73 87 88
217 217 220 226 154 97 95 99 105 116 140 160 166 174 182 186 185 183 182 185 196 192 185 191 195 189 180 169 163 165 164 160 155 148 145 142 136 130 128 126 125 124 123 123 121 106 72 43 22 13 21 36 46 47 52 56 58 66 69 72 78 82 80 76 84 102 137 153 181 213 238 294 81 104 150 143 111 120 128 110 93 83 74 73 84
215 217 207 119 99 104 106 104 110 134 169 174 169 172 181 184 182 181 181 185 198 197 190 195 197 189 178 167 164 166 166 162 155 151 149 146 142 134 130 128 125 128 131 129 123 103 71 47 36 37 36 31 40 45 48 53 58 67 69 74 78 74 70 70 84 100 110 118 120 113 111 131 129 116 118 120 104 99 112 107 99 97 84 70 74
195 178 124 107 113 122 128 134 149 168 175 169 168 176 183 181 178 180 185 187 195 197 194 195 194 190 181 172 170 169 168 166 160 156 155 152 147 140 134 131 131 137 140 134 123 98 71 61 66 74 65 48 44 43 51 62 65 68 72 76 72 62 62 69 82 95 99 101 101 95 90 90 97 89 88 127 130 123 124 114 101 102 100 90 81
141 143 125 119 127 135 138 146 155 165 170 170 176 182 181 177 176 179 183 188 197 199 197 196 195 193 186 181 179 173 170 171 168 164 162 160 155 148 141 135 137 145 144 136 123 97 76 79 85 83 77 68 62 54 58 75 84 86 82 71 61 58 67 77 86 94 96 97 96 94 90 85 83 80 74 95 129 134 132 122 116 113 104 99 95
132 142 132 128 139 147 147 154 162 168 172 171 171 172 173 177 179 176 179 191 202 202 199 200 200 196 190 187 187 180 174 175 177 173 170 169 165 158 150 142 145 150 148 140 126 105 90 91 89 83 79 73 70 71 74 81 89 93 88 79 78 80 84 88 92 94 95 95 95 91 87 82 81 84 89 96 113 133 134 125 120 119 114 111 104
112 122 124 127 141 146 148 160 169 167 147 115 102 154 172 179 181 179 182 194 203 204 202 203 202 199 194 192 193 188 181 182 186 183 177 175 172 165 155 148 152 155 152 144 131 115 103 98 91 84 79 71 65 66 70 78 83 85 88 92 99 99 96 96 96 95 96 97 98 96 91 88 86 86 93 106 125 143 142 135 127 116 113 116 107
100 110 117 130 144 138 137 157 152 96 86 95 133 192 190 182 183 187 191 196 201 202 201 202 202 200 197 196 197 195 190 189 192 189 183 177 172 165 153 145 151 158 156 149 137 125 112 102 96 90 84 74 64 59 62 70 78 88 96 97 98 95 90 93 95 100 103 102 105 103 96 92 89 87 87 92 114 143 146 142 139 131 119 113 111
100 110 123 145 156 149 147 151 99 99 102 119 173 204 203 193 192 197 202 204 204 202 199 200 201 201 201 200 200 199 195 193 191 189 185 178 171 162 150 143 148 153 152 147 139 129 117 110 105 97 90 81 70 62 61 65 70 80 93 96 91 83 76 78 82 93 105 106 111 110 101 94 87 85 86 87 99 120 143 154 153 147 140 130 122
115 122 141 157 163 161 155 118 91 125 135 154 184 196 203 205 202 201 205 206 204 204 203 202 201 201 203 203 202 200 198 197 194 189 183 178 172 162 150 148 150 153 150 144 141 135 120 109 105 99 92 86 79 71 66 65 64 68 80 88 90 85 77 73 73 80 95 106 114 114 106 99 93 88 87 88 89 98 126 156 177 174 157 148 142
120 116 134 154 168 164 138 115 134 160 159 171 192 195 202 210 209 203 203 204 204 205 205 204 204 204 206 206 204 203 201 200 199 193 184 178 175 167 156 152 154 156 156 145 139 139 131 111 99 92 86 81 81 80 72 65 62 62 68 77 84 87 81 76 75 79 87 95 106 109 105 102 101 96 90 87 85 84 94 117 154 180 182 155 142
115 115 112 191 205 161 126 121 156 189 177 179 199 203 205 212 214 207 206 206 205 206 206 206 207 210 213 212 208 205 202 202 203 198 189 181 178 172 160 155 156 159 163 156 142 141 144 134 101 81 78 77 81 91 84 70 64 59 60 66 73 79 83 83 84 88 90 92 100 105 104 103 103 100 94 89 86 85 85 86 99 135 157 142 134
122 124 130 219 227 143 117 129 157 183 185 185 203 213 213 217 220 214 211 210 207 207 207 207 207 209 214 213 209 206 203 204 205 201 196 189 182 176 167 162 162 164 168 168 158 149 150 152 133 98 78 72 74 87 87 72 64 57 54 53 49 58 80 90 87 95 100 102 113 114 112 109 102 101 104 101 96 92 90 89 89 96 115 124 123
119 121 152 199 182 89 94 131 160 173 180 187 201 212 214 218 224 220 213 208 204 207 207 207 206 206 209 211 210 207 203 205 207 204 201 196 188 183 177 173 173 171 169 174 177 170 163 166 169 186 267 322 3 23 29 23 26 29 29 17 0 3 28 56 62 91 113 117 127 129 125 120 109 106 112 113 113 106 95 94 94 93 101 110 111
129 141 156 143 88 81 95 130 153 160 169 185 199 208 211 215 221 221 216 204 196 201 203 204 204 205 208 211 211 208 204 206 209 206 203 201 196 191 187 185 186 183 178 184 190 186 175 176 197 261 296 315 329 339 347 348 348 344 340 339 328 318 306 302 307 294 243 194 161 165 157 143 129 122 125 128 128 123 110 104 102 103 106 108 109
119 119 111 100 96 98 108 118 126 131 137 164 191 205 214 218 221 222 220 218 215 207 201 198 199 202 207 208 210 211 208 207 207 206 206 206 203 200 195 195 197 195 193 197 201 208 217 199 226 294 307 330 342 341 334 328 327 324 320 318 311 304 297 290 286 279 268 273 261 229 221 219 199 178 169 162 154 145 137 127 117 113 114 113 112
93 88 83 98 110 111 113 114 112 116 122 136 161 184 205 213 215 208 206 217 223 212 201 196 196 200 203 205 210 214 212 209 206 205 209 210 208 205 202 199 201 203 203 207 209 217 228 234 275 302 304 313 323 324 316 307 306 308 308 303 296 297 296 292 290 286 273 268 263 250 248 254 245 226 215 203 193 183 169 157 143 131 127 123 118
82 87 88 90 95 96 102 110 116 123 131 143 147 146 158 172 184 185 180 187 195 193 195 198 199 199 198 201 207 205 203 207 210 209 212 214 210 207 204 200 203 211 212 211 213 220 230 236 246 269 283 291 299 302 301 298 297 299 299 292 287 289 291 290 291 292 283 271 263 254 252 257 252 241 234 231 224 214 203 191 176 159 151 142 128
67 67 70 68 66 67 73 83 100 119 130 140 140 139 146 147 152 158 157 167 172 172 181 191 198 199 197 199 198 193 195 209 221 219 217 214 210 206 204 203 209 218 220 217 219 224 230 230 229 239 258 275 286 290 296 301 299 295 290 283 280 280 282 286 294 297 290 277 267 259 255 255 252 248 248 249 244 233 223 213 202 188 178 167 155
52 50 51 50 47 46 48 51 55 66 86 106 119 135 147 144 140 134 128 153 165 164 168 179 188 192 194 196 195 196 202 210 217 220 214 208 203 200 199 202 209 216 215 214 217 221 226 229 232 239 251 268 277 281 291 299 298 294 288 281 277 275 277 285 294 297 293 282 272 265 263 263 260 253 252 255 251 240 233 228 223 217 204 190 177
51 45 44 46 44 38 37 38 38 38 45 60 81 109 131 136 135 133 131 152 168 166 166 167 172 176 182 189 191 194 198 201 205 208 203 195 191 189 189 193 199 202 204 212 224 235 240 239 240 245 252 263 272 278 285 288 288 291 292 289 283 277 277 282 286 289 289 283 275 271 269 269 269 263 256 256 253 245 241 236 230 225 216 205 194
53 48 45 47 46 43 39 38 38 37 36 39 46 63 89 113 126 133 140 157 171 172 170 164 161 160 162 168 170 169 172 180 187 190 188 186 186 186 189 195 197 199 206 221 233 238 238 236 237 241 246 254 268 278 278 277 280 284 285 284 284 281 279 279 281 283 287 288 284 280 278 277 279 275 265 259 257 253 250 244 238 233 221 212 206
54 51 51 53 52 51 47 43 41 39 37 37 37 45 66 93 115 130 143 152 167 176 175 170 162 154 152 154 157 157 159 166 177 182 183 188 195 197 199 200 200 204 213 222 226 225 224 225 226 226 229 236 249 261 260 262 270 273 274 278 282 282 279 277 281 283 288 295 291 279 276 277 279 281 276 267 260 257 253 249 248 247 237 224 214
58 57 57 56 55 52 47 43 41 41 44 46 46 50 62 77 99 120 127 128 141 165 176 181 180 175 172 172 172 171 169 173 184 191 191 195 201 201 196 194 195 197 200 197 195 198 198 196 189 179 178 179 177 177 194 272 289 283 288 295 294 292 288 281 282 283 288 299 293 277 276 280 284 294 300 281 263 259 255 249 247 248 245 235 223
61 61 58 57 55 52 49 45 42 43 48 52 53 56 59 64 81 101 108 117 133 152 167 178 186 188 188 186 184 180 178 180 187 193 192 191 192 189 184 184 184 183 182 173 163 161 158 147 135 129 123 117 110 99 88 74 53 33 2 336 318 306 301 293 288 290 294 305 304 291 295 300 304 313 317 293 270 266 258 247 240 237 233 227 221
59 59 58 57 55 54 52 49 48 49 53 60 63 63 61 63 75 89 100 109 118 127 134 142 153 161 168 174 177 177 178 182 186 188 183 172 167 166 166 165 162 159 154 144 136 133 128 122 117 113 108 103 96 87 76 64 45 32 18 0 343 322 305 294 291 296 302 307 306 301 306 312 315 319 321 309 292 278 258 243 232 224 216 212 216
55 54 52 50 51 52 50 46 44 43 51 62 68 70 71 72 76 86 94 95 95 100 105 109 118 129 138 148 157 163 168 173 174 169 157 146 142 142 143 144 141 139 133 126 122 119 115 113 110 106 99 91 85 76 62 50 37 23 10 356 346 336 318 298 289 291 294 296 299 299 303 311 315 316 317 314 306 288 258 232 215 206 202 203 210
48 45 41 36 36 38 39 38 35 33 40 51 58 65 70 73 76 84 92 94 91 89 89 89 91 100 113 125 133 139 140 140 142 139 134 132 132 132 133 134 133 131 127 123 120 116 113 111 107 99 92 83 76 71 62 54 44 30 17 0 347 340 332 320 304 296 292 292 297 300 303 310 315 316 316 315 309 286 240 210 196 191 192 196 201
48 47 43 40 38 40 44 45 37 33 37 40 43 54 62 64 69 77 86 96 98 93 91 88 83 84 94 109 121 128 131 132 133 134 133 133 134 134 136 137 136 133 131 127 124 120 115 112 107 98 90 83 80 80 76 64 51 41 33 19 3 354 350 346 336 325 317 313 315 318 321 332 342 342 336 329 310 246 201 188 184 183 186 190 196
54 56 54 52 51 50 54 56 48 41 38 31 27 40 50 47 47 56 68 83 94 99 100 99 99 101 102 104 109 112 116 125 133 140 142 143 144 145 144 143 141 138 136 134 129 124 120 114 109 99 87 80 79 79 70 53 42 37 37 36 25 12 5 4 0 354 352 352 356 14 24 24 23 18 10 9 26 183 181 180 182 184 182 186 204
52 52 48 47 48 46 47 51 50 44 38 32 23 20 20 15 14 23 35 48 71 102 113 112 122 132 136 141 152 158 158 163 169 167 160 156 154 152 150 151 150 146 144 142 135 130 125 116 104 88 74 68 65 60 48 36 30 30 33 36 33 22 11 10 16 22 32 47 56 57 52 44 40 36 36 62 121 163 175 178 180 182 186 207 234
43 41 37 36 39 41 40 41 40 35 30 29 26 21 16 6 359 359 2 4 1 348 314 286 228 215 205 195 193 191 187 188 190 184 173 165 162 159 156 154 153 150 147 144 137 130 124 115 101 69 45 38 36 34 26 24 23 25 29 31 32 30 17 15 37 56 76 88 83 69 62 63 71 79 96 126 145 162 173 174 169 164 182 225 251
32 30 29 29 30 32 33 32 28 23 19 18 19 21 21 12 356 340 333 336 335 324 312 304 295 282 253 216 197 187 184 184 185 184 180 175 173 171 167 162 158 155 150 143 140 140 136 138 149 258 317 327 347 357 359 3 7 15 26 31 33 33 21 26 94 117 121 121 117 110 112 120 129 136 148 156 158 165 175 179 178 162 172 210 253
29 27 25 24 22 23 23 21 17 13 10 8 7 10 12 6 358 354 349 342 333 321 306 297 290 280 268 247 217 201 198 199 197 197 195 189 184 183 183 182 183 181 176 174 175 179 184 192 208 227 251 271 286 317 328 334 338 346 7 31 37 38 32 108 167 163 147 135 133 133 135 140 143 143 145 151 159 183 244 271 274 253 229 248 273
23 22 19 15 13 13 12 10 8 6 4 1 358 358 356 350 350 355 353 345 338 330 318 306 293 279 270 260 241 223 213 209 208 209 203 196 195 198 199 200 199 193 188 187 188 189 191 196 206 214 222 236 251 276 296 301 302 301 292 263 215 185 180 184 188 179 163 151 146 144 143 143 142 137 124 72 323 310 314 322 328 327 316 311 311
12 12 11 7 5 2 360 358 357 355 354 353 352 350 345 338 335 337 336 334 334 332 326 318 306 292 279 268 254 238 225 220 221 220 213 208 209 208 203 200 198 193 190 189 188 189 195 202 210 216 223 235 248 263 276 277 275 273 260 241 224 212 205 200 197 189 178 168 160 154 147 143 146 160 121 8 349 344 352 0 2 346 329 329 331
3 1 2 360 355 350 347 345 344 344 342 341 342 340 334 328 324 323 323 324 324 324 323 320 314 305 293 281 268 251 237 233 234 228 218 215 215 211 204 201 199 196 193 191 192 195 201 208 216 224 232 243 257 267 273 273 269 261 247 233 220 208 206 206 202 191 179 169 161 156 152 149 151 139 104 76 48 34 34 28 4 340 333 334 335
352 350 350 348 341 335 332 330 331 333 332 329 330 330 326 321 317 316 318 318 316 315 316 315 313 310 303 295 285 267 251 243 237 228 220 218 217 212 207 204 202 202 201 199 201 206 210 214 219 228 241 253 263 270 273 271 264 252 238 227 216 203 199 201 195 185 176 169 163 157 151 147 139 119 92 72 55 41 28 4 344 341 348 353 349
340 339 337 332 326 320 318 317 318 321 322 320 319 319 319 317 314 314 315 313 310 310 309 308 307 307 305 303 296 281 264 249 238 229 225 224 221 217 213 209 206 206 207 208 210 213 216 219 224 235 247 255 260 265 265 261 252 239 226 219 209 197 193 190 184 176 170 163 158 155 151 146 135 120 98 68 43 22 4 351 347 353 4 4 352
327 326 324 319 314 310 309 308 307 307 310 310 308 308 309 309 312 314 314 311 308 306 305 303 301 300 299 299 298 291 274 255 241 233 229 227 224 221 218 214 210 210 211 213 216 218 220 226 234 243 250 253 256 256 253 243 232 224 215 208 199 191 184 179 172 167 163 159 156 153 151 146 132 111 71 43 31 20 11 7 4 6 8 5 358
318 316 313 309 305 302 300 300 299 299 301 300 298 298 298 299 303 307 310 310 307 304 301 298 295 295 293 289 290 291 279 259 244 234 228 224 222 221 221 219 216 215 215 216 220 225 230 236 242 247 251 253 250 247 245 239 231 222 212 202 195 189 184 180 175 169 162 158 154 148 140 129 115 95 70 53 45 35 26 21 15 10 8 8 4
318 313 310 306 301 297 296 295 293 294 295 293 292 293 293 294 295 297 303 307 306 303 299 294 291 290 288 284 283 285 278 259 242 231 227 225 223 222 223 224 222 221 224 227 231 236 242 247 250 251 251 249 248 253 255 250 238 228 220 212 203 196 189 184 181 176 166 156 148 140 133 125 112 95 79 64 48 36 28 21 16 14 11 8 1
321 317 313 308 303 299 296 293 293 292 291 289 289 290 291 292 291 290 294 302 306 304 298 292 288 287 285 282 278 276 271 258 243 236 237 239 239 237 235 236 236 236 239 244 246 249 252 255 257 258 256 253 256 264 265 253 235 225 220 216 210 203 195 185 179 175 168 156 145 137 129 121 109 91 76 61 44 33 25 15 10 8 3 358 357
318 317 313 308 304 300 295 292 292 291 289 286 286 286 288 289 287 284 286 293 301 303 296 289 285 284 282 280 277 273 264 253 245 243 241 242 245 247 248 248 249 249 250 252 253 254 255 255 256 258 259 259 260 262 259 247 231 218 210 205 201 197 191 183 177 171 162 151 145 138 128 118 106 90 75 62 45 33 23 10 2 358 353 348 347